Hourly Weather Suhodol

Today, 26 January, Tuesday

Time Temperature Precipitation Wind Pressure Humidity
00:00 -6°C° 0 mm 2 mps 768 mmHg 86%
01:00 -6°C° 0 mm 3 mps 767 mmHg 85%
02:00 -6°C° 0 mm 3 mps 767 mmHg 83%
03:00 -5°C° 0 mm 3 mps 766 mmHg 82%
04:00 -5°C° 0 mm 4 mps 766 mmHg 81%
05:00 -4°C° 0 mm 4 mps 765 mmHg 80%
06:00 -5°C° 0 mm 5 mps 765 mmHg 79%
07:00 -4°C° 0 mm 4 mps 764 mmHg 80%
08:00 -4°C° 0 mm 4 mps 764 mmHg 82%
09:00 -3°C° 0 mm 4 mps 763 mmHg 80%
10:00 -2°C° 0 mm 5 mps 763 mmHg 77%
11:00 -1°C° 0 mm 5 mps 762 mmHg 74%
12:00 -1°C° 0 mm 6 mps 762 mmHg 71%
13:00 0°C° 0 mm 5 mps 761 mmHg 74%
14:00 0°C° 0 mm 5 mps 760 mmHg 78%
15:00 0°C° 0 mm 5 mps 759 mmHg 82%
16:00 -1°C° 0.5 mm 4 mps 759 mmHg 87%
17:00 0°C° 0.5 mm 3 mps 759 mmHg 91%
18:00 -1°C° 0.5 mm 2 mps 759 mmHg 96%
19:00 -1°C° 2 mm 2 mps 759 mmHg 97%
20:00 +1°C° 2 mm 1 mps 759 mmHg 97%
21:00 +1°C° 2 mm 1 mps 758 mmHg 98%
22:00 -2°C° 0.1 mm 2 mps 759 mmHg 92%
23:00 -4°C° 0.1 mm 3 mps 759 mmHg 86%

Tomorrow, 27 January, Wednesday

Time Temperature Precipitation Wind Pressure Humidity
00:00 -5°C° 0.1 mm 4 mps 759 mmHg 81%
01:00 -7°C° 0 mm 4 mps 760 mmHg 82%
02:00 -8°C° 0 mm 4 mps 760 mmHg 83%
03:00 -9°C° 0 mm 4 mps 761 mmHg 84%
04:00 -10°C° 0 mm 4 mps 761 mmHg 84%
05:00 -9°C° 0 mm 3 mps 762 mmHg 85%
06:00 -10°C° 0 mm 3 mps 762 mmHg 85%
07:00 -10°C° 0 mm 3 mps 763 mmHg 81%
08:00 -12°C° 0 mm 3 mps 763 mmHg 77%
09:00 -12°C° 0 mm 3 mps 764 mmHg 73%
10:00 -11°C° 0 mm 4 mps 764 mmHg 68%
11:00 -10°C° 0 mm 4 mps 764 mmHg 62%
12:00 -11°C° 0 mm 5 mps 764 mmHg 57%
13:00 -10°C° 0 mm 4 mps 764 mmHg 57%
14:00 -10°C° 0 mm 4 mps 764 mmHg 58%
15:00 -10°C° 0 mm 4 mps 764 mmHg 59%
16:00 -10°C° 0 mm 3 mps 765 mmHg 65%
17:00 -12°C° 0 mm 2 mps 765 mmHg 71%
18:00 -11°C° 0 mm 1 mps 766 mmHg 77%
19:00 -13°C° 0 mm 2 mps 766 mmHg 76%
20:00 -14°C° 0 mm 2 mps 766 mmHg 75%
21:00 -14°C° 0 mm 2 mps 766 mmHg 73%
22:00 -14°C° 0 mm 2 mps 766 mmHg 74%
23:00 -16°C° 0 mm 3 mps 766 mmHg 75%

Day after tomorrow, 28 January, Thursday

Time Temperature Precipitation Wind Pressure Humidity
00:00 -16°C° 0 mm 3 mps 766 mmHg 75%
01:00 -16°C° 0 mm 3 mps 766 mmHg 76%
02:00 -15°C° 0 mm 2 mps 766 mmHg 77%
03:00 -13°C° 0 mm 1 mps 765 mmHg 78%
04:00 -13°C° 0 mm 1 mps 765 mmHg 77%
05:00 -13°C° 0 mm 1 mps 764 mmHg 76%
06:00 -13°C° 0 mm 1 mps 764 mmHg 75%
07:00 -13°C° 0 mm 1 mps 763 mmHg 73%
08:00 -12°C° 0 mm 1 mps 763 mmHg 70%
09:00 -11°C° 0 mm 1 mps 762 mmHg 67%
10:00 -12°C° 0.1 mm 2 mps 761 mmHg 70%
11:00 -10°C° 0.1 mm 2 mps 760 mmHg 73%
12:00 -9°C° 0.1 mm 2 mps 758 mmHg 76%
13:00 -9°C° 0.6 mm 2 mps 757 mmHg 80%
14:00 -10°C° 0.6 mm 3 mps 755 mmHg 85%
15:00 -10°C° 0.6 mm 3 mps 754 mmHg 90%
16:00 -11°C° 1.2 mm 4 mps 753 mmHg 91%
17:00 -11°C° 1.2 mm 4 mps 752 mmHg 92%
18:00 -12°C° 1.2 mm 5 mps 751 mmHg 94%
19:00 -12°C° 1.5 mm 6 mps 750 mmHg 93%
20:00 -14°C° 1.5 mm 7 mps 749 mmHg 91%
21:00 -15°C° 1.5 mm 9 mps 749 mmHg 90%
22:00 -16°C° 0.5 mm 9 mps 749 mmHg 90%
23:00 -17°C° 0.5 mm 10 mps 749 mmHg 89%

29 January, Friday

Time Temperature Precipitation Wind Pressure Humidity
00:00 -18°C° 0.5 mm 10 mps 748 mmHg 88%
01:00 -19°C° 0.4 mm 11 mps 749 mmHg 88%
02:00 -21°C° 0.4 mm 12 mps 749 mmHg 87%
03:00 -22°C° 0.4 mm 12 mps 749 mmHg 87%
04:00 -22°C° 0.5 mm 12 mps 749 mmHg 87%
05:00 -24°C° 0.5 mm 13 mps 750 mmHg 86%
06:00 -25°C° 0.5 mm 13 mps 751 mmHg 86%
07:00 -26°C° 0.3 mm 12 mps 752 mmHg 87%
08:00 -26°C° 0.3 mm 12 mps 753 mmHg 87%
09:00 -27°C° 0.3 mm 12 mps 755 mmHg 87%
10:00 -27°C° 0.1 mm 12 mps 755 mmHg 86%
11:00 -27°C° 0.1 mm 12 mps 756 mmHg 85%
12:00 -27°C° 0.1 mm 11 mps 756 mmHg 83%
13:00 -26°C° 0 mm 11 mps 757 mmHg 82%
14:00 -25°C° 0 mm 10 mps 758 mmHg 80%
15:00 -25°C° 0 mm 10 mps 758 mmHg 78%
16:00 -26°C° 0 mm 9 mps 759 mmHg 77%
17:00 -26°C° 0 mm 9 mps 760 mmHg 76%
18:00 -27°C° 0 mm 9 mps 761 mmHg 75%
19:00 -28°C° 0 mm 8 mps 761 mmHg 76%
20:00 -27°C° 0 mm 7 mps 762 mmHg 76%
21:00 -29°C° 0 mm 7 mps 763 mmHg 77%
22:00 -29°C° 0 mm 6 mps 763 mmHg 79%
23:00 -30°C° 0 mm 6 mps 763 mmHg 81%

30 January, Saturday

Time Temperature Precipitation Wind Pressure Humidity
00:00 -29°C° 0 mm 5 mps 764 mmHg 83%
01:00 -31°C° 0 mm 5 mps 764 mmHg 85%
02:00 -31°C° 0 mm 4 mps 765 mmHg 86%
03:00 -31°C° 0 mm 4 mps 765 mmHg 88%
04:00 -31°C° 0 mm 4 mps 765 mmHg 87%
05:00 -30°C° 0 mm 3 mps 765 mmHg 87%
06:00 -31°C° 0 mm 3 mps 765 mmHg 87%
07:00 -29°C° 0 mm 3 mps 765 mmHg 85%
08:00 -27°C° 0 mm 3 mps 766 mmHg 83%
09:00 -25°C° 0 mm 2 mps 766 mmHg 82%
10:00 -21°C° 0 mm 2 mps 766 mmHg 77%
11:00 -19°C° 0 mm 2 mps 765 mmHg 72%
12:00 -16°C° 0 mm 2 mps 765 mmHg 67%
13:00 -15°C° 0 mm 2 mps 765 mmHg 68%
14:00 -14°C° 0 mm 2 mps 764 mmHg 69%
15:00 -12°C° 0 mm 1 mps 764 mmHg 70%
16:00 -13°C° 0 mm 1 mps 764 mmHg 76%
17:00 -15°C° 0 mm 1 mps 765 mmHg 82%
18:00 -17°C° 0 mm 1 mps 765 mmHg 88%
19:00 -19°C° 0 mm 2 mps 765 mmHg 88%
20:00 -19°C° 0 mm 2 mps 766 mmHg 89%
21:00 -20°C° 0 mm 2 mps 766 mmHg 89%
22:00 -20°C° 0 mm 2 mps 766 mmHg 89%
23:00 -20°C° 0 mm 2 mps 766 mmHg 89%

31 January, Sunday

Time Temperature Precipitation Wind Pressure Humidity
00:00 -21°C° 0 mm 2 mps 766 mmHg 89%
01:00 -21°C° 0 mm 2 mps 766 mmHg 89%
02:00 -21°C° 0 mm 2 mps 766 mmHg 89%
03:00 -21°C° 0 mm 2 mps 766 mmHg 89%
04:00 -21°C° 0 mm 2 mps 766 mmHg 88%
05:00 -23°C° 0 mm 3 mps 766 mmHg 87%
06:00 -23°C° 0 mm 3 mps 766 mmHg 86%
07:00 -20°C° 0 mm 2 mps 767 mmHg 83%
08:00 -19°C° 0 mm 2 mps 767 mmHg 80%
09:00 -19°C° 0 mm 2 mps 768 mmHg 77%
10:00 -18°C° 0 mm 3 mps 767 mmHg 74%
11:00 -16°C° 0 mm 3 mps 767 mmHg 70%
12:00 -15°C° 0 mm 3 mps 767 mmHg 66%
13:00 -14°C° 0 mm 3 mps 766 mmHg 66%
14:00 -14°C° 0 mm 3 mps 766 mmHg 66%
15:00 -13°C° 0 mm 3 mps 765 mmHg 66%
16:00 -14°C° 0 mm 2 mps 766 mmHg 70%
17:00 -15°C° 0 mm 2 mps 766 mmHg 74%
18:00 -17°C° 0 mm 2 mps 766 mmHg 78%
19:00 -17°C° 0 mm 2 mps 766 mmHg 78%
20:00 -16°C° 0 mm 1 mps 766 mmHg 78%
21:00 -16°C° 0 mm 1 mps 765 mmHg 78%
22:00 -16°C° 0 mm 1 mps 765 mmHg 79%
23:00 -15°C° 0 mm 1 mps 764 mmHg 79%
Show more